Skip Page Navigation
NASA JPL Caltech
NASA Logo - Jet Propulsion Laboratory + View the NASA Portal
+ Near-Earth Object (NEO) Program
Search JPL
JPL Home Earth Solar System Stars & Galaxies Technology
JPL Solar System Dynamics
BODIES ORBITS EPHEMERIDES TOOLS PHYSICAL DATA DISCOVERY FAQ SITE MAP
JPL Small-Body Database Browser
Search: [ help ]  
11426 Molster (2527 P-L)
Classification: Main-belt Asteroid          SPK-ID: 2011426
Ephemeris | Orbit Diagram | Orbital Elements | Physical Parameters | Discovery Circumstances | Close-Approach Data ]

[ show orbit diagram ]
Orbital Elements at Epoch 2457000.5 (2014-Dec-09.0) TDB
Reference: JPL 9 (heliocentric ecliptic J2000)
 Element Value Uncertainty (1-sigma)   Units 
e .2832562522676841 6.9071e-08  
a 3.153408655282936 2.8764e-08 AU
q 2.260185937719014 2.1921e-07 AU
i 15.14443809339699 7.6602e-06 deg
node 185.7729377369462 2.29e-05 deg
peri 212.9734722040452 2.565e-05 deg
M 217.1609281099848 1.5213e-05 deg
tp 2457812.046349851547
(2017-Feb-27.54634985)
9.5439e-05 JED
period 2045.355532494043
5.60
2.7985e-05
7.662e-08
d
yr
n .1760085199275977 2.4082e-09 deg/d
Q 4.046631372846857 3.6911e-08 AU
  Orbit Determination Parameters
   # obs. used (total)      689  
   data-arc span      19994 days (54.74 yr)  
   first obs. used      1960-09-24  
   last obs. used      2015-06-22  
   planetary ephem.      DE431  
   SB-pert. ephem.      SB431-BIG16  
   condition code      0  
   fit RMS      .56098  
   data source      ORB  
   producer      Otto Matic  
   solution date      2015-Jul-06 12:06:55  

Additional Information
 Earth MOID = 1.28118 AU 
 T_jup = 3.091 
[ show covariance matrix ]

Ephemeris | Orbit Diagram | Orbital Elements | Physical Parameters | Discovery Circumstances | Close-Approach Data ]

Physical Parameter Table
Parameter Symbol Value Units Sigma Reference Notes
absolute magnitude H 13.4 mag n/a MPO309241  

11426 Molster           Discovered 1960 Sept. 24 by C. J. van Houten and I. van Houten-Groeneveld on Palomar Schmidt plates taken by T. Gehrels.
Lucia Glen Molster (2007 Apr. 26-27) was the beloved daughter of Dutch astronomers Frank and Nathalie Molster.
NOTE: some special characters may not display properly (any characters within {} are an attempt to place the proper accent above a character)
Reference: 20070730/MPCPages.arcLast Updated: 2007-08-07

[ show close-approach data ]
Alternate Designations
 2527 P-L = 1977 SY = 1977 TD7 
Ephemeris | Orbit Diagram | Orbital Elements | Physical Parameters | Discovery Circumstances | Close-Approach Data ]
ABOUT SSD CREDITS/AWARDS PRIVACY/COPYRIGHT GLOSSARY LINKS
FirstGov 2015-Jul-31 09:22 UT
(server date/time)  
NASA Home Page
Site Manager:   Ryan S. Park
Webmaster  Alan B. Chamberlin